JST789 YBSU-YSSY

Flight info

Callsign JST789
Flight time 1h 20m
Altitude 36000
Route SU Q35 SANEG H91 IGDAM H652 TESAT
Aircraft A320/M-SDE3FGHIRWY/LB1

Departure

Time 2026-05-04 10:54
Airport Sunshine Coast Airport (YBSU)

Arrival

Time 2026-05-04 12:14
Airport Sydney Kingsford Smith International Airport (YSSY)
Time Latitude Longitude Altitude Speed Heading
2026-05-04 10:23 -26.60445 153.08888 21 ft 0 kts 233°
2026-05-04 10:40 -26.60443 153.08892 21 ft 3 kts 234°
2026-05-04 10:40 -26.60428 153.08917 21 ft 4 kts 233°
2026-05-04 10:40 -26.60414 153.08932 21 ft 4 kts 160°
2026-05-04 10:41 -26.60398 153.08922 21 ft 1 kts 143°
2026-05-04 10:41 -26.60397 153.08922 21 ft 0 kts 143°
2026-05-04 10:45 -26.60400 153.08924 21 ft 1 kts 143°
2026-05-04 10:45 -26.60414 153.08936 21 ft 4 kts 142°
2026-05-04 10:45 -26.60450 153.08966 21 ft 9 kts 142°
2026-05-04 10:45 -26.60510 153.09017 23 ft 12 kts 142°
2026-05-04 10:46 -26.60493 153.09076 21 ft 11 kts 359°
2026-05-04 10:46 -26.60422 153.09023 21 ft 13 kts 322°
2026-05-04 10:46 -26.60342 153.08954 21 ft 16 kts 322°
2026-05-04 10:46 -26.60250 153.08875 21 ft 18 kts 322°
2026-05-04 10:47 -26.60146 153.08785 21 ft 20 kts 322°
2026-05-04 10:47 -26.60029 153.08685 21 ft 22 kts 322°
2026-05-04 10:47 -26.59900 153.08576 22 ft 24 kts 323°
2026-05-04 10:47 -26.59759 153.08456 21 ft 27 kts 323°
2026-05-04 10:49 -26.59293 153.08291 21 ft 11 kts 334°
2026-05-04 10:49 -26.59217 153.08225 21 ft 15 kts 321°
2026-05-04 10:50 -26.59125 153.08144 21 ft 18 kts 322°
2026-05-04 10:51 -26.58376 153.07433 21 ft 9 kts 341°
2026-05-04 10:52 -26.58337 153.07467 22 ft 5 kts 80°
2026-05-04 10:52 -26.58362 153.07502 21 ft 7 kts 140°
2026-05-04 10:52 -26.58376 153.07514 21 ft 11 kts 140°
2026-05-04 10:54 -26.63866 153.12182 2309 ft 190 kts 141°
2026-05-04 10:54 -26.64873 153.13275 2550 ft 215 kts 130°
2026-05-04 10:56 -26.72963 153.23794 7361 ft 274 kts 130°
2026-05-04 10:56 -26.74210 153.25416 8146 ft 277 kts 130°
2026-05-04 10:56 -26.75484 153.27069 8927 ft 283 kts 130°
2026-05-04 10:57 -26.76782 153.28746 9698 ft 288 kts 130°
2026-05-04 10:57 -26.78107 153.30461 10296 ft 299 kts 131°
2026-05-04 10:57 -26.79518 153.32283 10515 ft 321 kts 131°
2026-05-04 10:57 -26.81195 153.34035 10879 ft 337 kts 144°
2026-05-04 10:58 -26.83255 153.35323 11491 ft 343 kts 158°
2026-05-04 10:58 -26.85575 153.36028 12088 ft 349 kts 172°
2026-05-04 10:58 -26.88018 153.36108 12697 ft 354 kts 182°
2026-05-04 10:58 -26.90493 153.36025 13334 ft 358 kts 183°
2026-05-04 10:59 -26.92995 153.35946 13963 ft 361 kts 183°
2026-05-04 10:59 -26.95520 153.35867 14563 ft 365 kts 184°
2026-05-04 10:59 -26.98072 153.35789 15128 ft 369 kts 184°
2026-05-04 10:59 -27.00654 153.35715 15702 ft 373 kts 184°
2026-05-04 11:00 -27.03261 153.35641 16259 ft 377 kts 184°
2026-05-04 11:01 -27.22204 153.35079 20066 ft 401 kts 186°
2026-05-04 11:02 -27.24999 153.34997 20609 ft 403 kts 186°
2026-05-04 11:02 -27.27812 153.34913 21113 ft 406 kts 186°
2026-05-04 11:05 -27.63389 153.16877 27325 ft 416 kts 218°
2026-05-04 11:06 -27.65873 153.15193 27701 ft 418 kts 218°
2026-05-04 11:06 -27.68341 153.13524 28076 ft 420 kts 218°
2026-05-04 11:06 -27.70881 153.11805 28439 ft 422 kts 218°
2026-05-04 11:06 -27.73372 153.10118 28796 ft 423 kts 218°
2026-05-04 11:08 -27.92322 152.99788 31243 ft 441 kts 210°
2026-05-04 11:10 -28.11967 152.91181 34488 ft 423 kts 212°
2026-05-04 11:12 -28.30996 152.82672 36133 ft 422 kts 213°
2026-05-04 11:12 -28.33732 152.81453 36136 ft 422 kts 213°
2026-05-04 11:12 -28.39209 152.79018 36130 ft 422 kts 213°
2026-05-04 11:13 -28.44671 152.76576 36138 ft 422 kts 213°
2026-05-04 11:13 -28.50131 152.74137 36144 ft 422 kts 213°
2026-05-04 11:14 -28.55560 152.71709 36145 ft 422 kts 213°
2026-05-04 11:16 -28.77444 152.61889 36161 ft 422 kts 213°
2026-05-04 11:16 -28.82904 152.59428 36161 ft 422 kts 213°
2026-05-04 11:17 -28.88142 152.56608 36159 ft 413 kts 219°
2026-05-04 11:19 -29.08535 152.44462 36163 ft 413 kts 219°
2026-05-04 11:19 -29.13632 152.41422 36170 ft 413 kts 219°
2026-05-04 11:20 -29.18730 152.38380 36166 ft 413 kts 219°
2026-05-04 11:20 -29.23827 152.35336 36161 ft 413 kts 219°
2026-05-04 11:22 -29.43334 152.23626 36164 ft 413 kts 219°
2026-05-04 11:23 -29.48404 152.20563 36164 ft 412 kts 219°
2026-05-04 11:25 -29.66187 152.09849 36165 ft 412 kts 219°
2026-05-04 11:25 -29.71471 152.07114 36160 ft 432 kts 207°
2026-05-04 11:27 -29.98153 152.00150 36159 ft 437 kts 205°
2026-05-04 11:28 -30.04074 151.98598 36154 ft 437 kts 205°
2026-05-04 11:28 -30.10007 151.97047 36152 ft 438 kts 205°
2026-05-04 11:29 -30.15947 151.95486 36153 ft 437 kts 205°
2026-05-04 11:29 -30.21882 151.93928 36153 ft 437 kts 205°
2026-05-04 11:31 -30.41777 151.86789 36154 ft 422 kts 214°
2026-05-04 11:33 -30.60852 151.77881 36154 ft 422 kts 214°
2026-05-04 11:33 -30.66303 151.75335 36153 ft 422 kts 214°
2026-05-04 11:34 -30.71754 151.72794 36151 ft 422 kts 214°
2026-05-04 11:34 -30.77207 151.70237 36147 ft 423 kts 214°
2026-05-04 11:35 -30.82659 151.67674 36149 ft 423 kts 215°
2026-05-04 11:35 -30.88122 151.65106 36150 ft 423 kts 215°
2026-05-04 11:36 -30.93581 151.62539 36152 ft 423 kts 215°
2026-05-04 11:36 -30.99051 151.59969 36155 ft 424 kts 215°
2026-05-04 11:37 -31.04516 151.57405 36155 ft 424 kts 215°
2026-05-04 11:37 -31.09981 151.54827 36156 ft 423 kts 215°
2026-05-04 11:38 -31.15436 151.52246 36151 ft 423 kts 215°
2026-05-04 11:38 -31.20887 151.49662 36148 ft 423 kts 215°
2026-05-04 11:39 -31.26338 151.47083 36146 ft 423 kts 215°
2026-05-04 11:41 -31.45465 151.38133 36144 ft 425 kts 214°
2026-05-04 11:41 -31.51006 151.35708 36136 ft 424 kts 214°
2026-05-04 11:42 -31.56526 151.33266 36137 ft 425 kts 214°
2026-05-04 11:42 -31.62047 151.30789 36130 ft 424 kts 214°
2026-05-04 11:43 -31.67566 151.28307 36129 ft 425 kts 214°
2026-05-04 11:43 -31.73081 151.25837 36125 ft 424 kts 214°
2026-05-04 11:44 -31.78597 151.23362 36128 ft 424 kts 214°
2026-05-04 11:44 -31.84118 151.20880 36126 ft 425 kts 214°
2026-05-04 11:45 -31.89588 151.18409 36128 ft 425 kts 214°
2026-05-04 11:45 -31.95108 151.15912 36128 ft 425 kts 214°
2026-05-04 11:45 -31.97879 151.14672 35995 ft 426 kts 214°
2026-05-04 11:46 -32.00646 151.13438 35739 ft 425 kts 214°
2026-05-04 11:46 -32.03413 151.12200 35489 ft 426 kts 213°
2026-05-04 11:46 -32.06193 151.10953 35179 ft 427 kts 213°
2026-05-04 11:46 -32.08954 151.09720 34749 ft 422 kts 214°
2026-05-04 11:47 -32.11693 151.08492 34275 ft 419 kts 213°
2026-05-04 11:47 -32.14406 151.07271 33812 ft 416 kts 213°
2026-05-04 11:47 -32.17105 151.06056 33333 ft 414 kts 213°
2026-05-04 11:47 -32.19786 151.04846 32864 ft 412 kts 213°
2026-05-04 11:48 -32.22459 151.03642 32386 ft 410 kts 213°
2026-05-04 11:48 -32.25119 151.02441 31910 ft 409 kts 213°
2026-05-04 11:48 -32.27771 151.01249 31448 ft 406 kts 213°
2026-05-04 11:48 -32.30410 151.00061 30981 ft 406 kts 212°
2026-05-04 11:49 -32.33045 150.98872 30522 ft 405 kts 212°
2026-05-04 11:49 -32.35674 150.97682 30067 ft 404 kts 212°
2026-05-04 11:49 -32.38292 150.96491 29623 ft 402 kts 212°
2026-05-04 11:49 -32.40901 150.95309 29176 ft 401 kts 212°
2026-05-04 11:50 -32.43510 150.94127 28741 ft 401 kts 211°
2026-05-04 11:50 -32.46108 150.92953 28312 ft 400 kts 210°
2026-05-04 11:50 -32.48810 150.92034 27886 ft 410 kts 199°
2026-05-04 11:50 -32.51690 150.91720 27453 ft 422 kts 187°
2026-05-04 11:51 -32.54645 150.92074 27007 ft 430 kts 178°
2026-05-04 11:51 -32.57605 150.92617 26563 ft 430 kts 178°
2026-05-04 11:51 -32.60519 150.93142 26121 ft 429 kts 177°
2026-05-04 11:51 -32.63502 150.93673 25667 ft 427 kts 177°
2026-05-04 11:52 -32.66441 150.94191 25200 ft 427 kts 177°
2026-05-04 11:52 -32.69345 150.94701 24735 ft 427 kts 176°
2026-05-04 11:52 -32.72286 150.95220 24248 ft 428 kts 176°
2026-05-04 11:52 -32.75234 150.95742 23779 ft 427 kts 175°
2026-05-04 11:53 -32.78161 150.96262 23340 ft 426 kts 175°
2026-05-04 11:53 -32.81070 150.96782 23015 ft 420 kts 175°
2026-05-04 11:53 -32.83971 150.97301 22505 ft 420 kts 175°
2026-05-04 11:53 -32.86836 150.97815 22180 ft 414 kts 175°
2026-05-04 11:55 -33.06273 151.01263 18655 ft 391 kts 174°
2026-05-04 11:55 -33.08957 151.01741 18164 ft 389 kts 174°
2026-05-04 11:56 -33.11614 151.02221 17749 ft 385 kts 174°
2026-05-04 11:56 -33.14257 151.02700 17329 ft 382 kts 174°
2026-05-04 11:56 -33.16879 151.03176 16844 ft 379 kts 174°
2026-05-04 11:56 -33.19468 151.03644 16413 ft 376 kts 174°
2026-05-04 11:57 -33.22043 151.04103 16018 ft 371 kts 174°
2026-05-04 11:57 -33.24600 151.04560 15534 ft 370 kts 174°
2026-05-04 11:57 -33.27093 151.05024 15073 ft 367 kts 173°
2026-05-04 11:57 -33.29603 151.05506 14638 ft 364 kts 173°
2026-05-04 11:58 -33.32121 151.06001 14205 ft 361 kts 173°
2026-05-04 11:58 -33.34553 151.06479 13793 ft 358 kts 173°
2026-05-04 11:58 -33.36998 151.06954 13380 ft 355 kts 173°
2026-05-04 11:58 -33.39432 151.07424 12976 ft 351 kts 173°
2026-05-04 11:59 -33.41839 151.07889 12550 ft 349 kts 173°
2026-05-04 11:59 -33.44228 151.08348 12181 ft 345 kts 173°
2026-05-04 11:59 -33.46600 151.08796 11770 ft 343 kts 173°
2026-05-04 11:59 -33.48952 151.09242 11318 ft 342 kts 173°
2026-05-04 12:00 -33.51302 151.09696 11134 ft 332 kts 173°
2026-05-04 12:00 -33.53541 151.10134 11004 ft 321 kts 173°
2026-05-04 12:00 -33.55725 151.10559 10746 ft 316 kts 173°
2026-05-04 12:00 -33.57886 151.10975 10328 ft 311 kts 173°
2026-05-04 12:01 -33.60018 151.11384 9686 ft 310 kts 173°
2026-05-04 12:01 -33.62131 151.11791 9040 ft 306 kts 172°
2026-05-04 12:02 -33.73384 151.17371 8010 ft 300 kts 133°
2026-05-04 12:03 -33.74818 151.19156 7852 ft 300 kts 133°
2026-05-04 12:03 -33.76267 151.20950 7698 ft 299 kts 133°
2026-05-04 12:03 -33.77708 151.22734 7543 ft 299 kts 133°
2026-05-04 12:03 -33.79156 151.24528 7389 ft 298 kts 133°
2026-05-04 12:04 -33.80595 151.26312 7233 ft 297 kts 133°
2026-05-04 12:04 -33.82109 151.27986 7077 ft 298 kts 144°
2026-05-04 12:04 -33.83920 151.29175 6925 ft 296 kts 160°
2026-05-04 12:04 -33.85909 151.29808 6770 ft 296 kts 169°
2026-05-04 12:05 -33.87908 151.30322 6614 ft 290 kts 168°
2026-05-04 12:05 -33.89854 151.30829 6451 ft 282 kts 168°
2026-05-04 12:05 -33.91727 151.31320 6320 ft 275 kts 168°
2026-05-04 12:05 -33.93573 151.31804 6178 ft 268 kts 168°
2026-05-04 12:06 -33.95361 151.32273 6054 ft 258 kts 168°
2026-05-04 12:06 -33.97078 151.32722 6001 ft 246 kts 168°
2026-05-04 12:06 -33.98750 151.33158 6003 ft 245 kts 168°
2026-05-04 12:06 -34.00422 151.33592 6005 ft 246 kts 168°
2026-05-04 12:07 -34.02100 151.34029 5864 ft 251 kts 169°
2026-05-04 12:07 -34.03865 151.34488 5199 ft 267 kts 168°
2026-05-04 12:07 -34.05691 151.34972 4826 ft 269 kts 168°
2026-05-04 12:07 -34.07538 151.35090 4489 ft 265 kts 194°
2026-05-04 12:08 -34.09166 151.34184 4166 ft 255 kts 225°
2026-05-04 12:08 -34.10269 151.32601 3839 ft 242 kts 241°
2026-05-04 12:08 -34.11180 151.30929 3516 ft 236 kts 243°
2026-05-04 12:08 -34.11893 151.29212 3184 ft 223 kts 265°
2026-05-04 12:09 -34.11781 151.27451 2866 ft 206 kts 299°
2026-05-04 12:09 -34.10907 151.26138 2551 ft 202 kts 319°
2026-05-04 12:09 -34.09793 151.25149 2317 ft 195 kts 321°
2026-05-04 12:09 -34.08676 151.24295 2033 ft 184 kts 323°
2026-05-04 12:10 -34.07655 151.23532 1988 ft 164 kts 323°
2026-05-04 12:10 -34.07027 151.23053 1993 ft 158 kts 323°
2026-05-04 12:10 -34.06103 151.22350 2003 ft 156 kts 323°
2026-05-04 12:10 -34.05126 151.21751 1815 ft 159 kts 336°
2026-05-04 12:11 -34.04084 151.21306 1564 ft 159 kts 344°
2026-05-04 12:11 -34.03025 151.20976 1292 ft 155 kts 350°
2026-05-04 12:11 -34.02018 151.20706 1162 ft 145 kts 347°
2026-05-04 12:11 -34.01041 151.20425 856 ft 144 kts 346°
2026-05-04 12:12 -34.00077 151.20159 635 ft 140 kts 350°
2026-05-04 12:12 -33.99122 151.19940 471 ft 140 kts 347°
2026-05-04 12:12 -33.98177 151.19658 299 ft 140 kts 348°
2026-05-04 12:12 -33.97233 151.19415 92 ft 140 kts 348°
2026-05-04 12:13 -33.96305 151.19173 25 ft 123 kts 348°
2026-05-04 12:14 -33.95105 151.18483 30 ft 15 kts 258°
2026-05-04 12:15 -33.95129 151.18348 30 ft 18 kts 257°
2026-05-04 12:15 -33.95149 151.18241 30 ft 11 kts 257°
2026-05-04 12:15 -33.95159 151.18187 30 ft 0 kts 259°
2026-05-04 12:16 -33.95159 151.18183 30 ft 2 kts 258°
2026-05-04 12:16 -33.95164 151.18159 30 ft 4 kts 258°
2026-05-04 12:16 -33.95172 151.18113 30 ft 7 kts 258°
2026-05-04 12:16 -33.95186 151.18031 30 ft 12 kts 258°
2026-05-04 12:17 -33.95131 151.17952 30 ft 16 kts 345°
2026-05-04 12:17 -33.95007 151.17919 30 ft 21 kts 347°
2026-05-04 12:17 -33.94853 151.17879 30 ft 24 kts 349°
2026-05-04 12:17 -33.94682 151.17834 30 ft 27 kts 347°
2026-05-04 12:18 -33.94510 151.17789 30 ft 25 kts 347°
2026-05-04 12:18 -33.94333 151.17736 30 ft 28 kts 346°
2026-05-04 12:18 -33.94153 151.17678 29 ft 25 kts 345°
2026-05-04 12:18 -33.93980 151.17632 29 ft 18 kts 349°
2026-05-04 12:19 -33.93891 151.17607 29 ft 14 kts 347°
2026-05-04 12:19 -33.93789 151.17581 29 ft 17 kts 347°
2026-05-04 12:19 -33.93700 151.17559 29 ft 13 kts 354°
2026-05-04 12:19 -33.93637 151.17603 30 ft 10 kts 41°
2026-05-04 12:20 -33.93572 151.17608 30 ft 9 kts 349°
2026-05-04 12:20 -33.93553 151.17622 30 ft 3 kts 74°
2026-05-04 12:20 -33.93554 151.17652 30 ft 5 kts 97°
2026-05-04 12:20 -33.93558 151.17678 30 ft 3 kts 100°
2026-05-04 12:21 -33.93559 151.17686 30 ft 0 kts 100°
2026-05-04 12:21 -33.93560 151.17688 30 ft 0 kts 100°